Weather History for Idaho Cnty AP, Grangeville, I, ID

Change the Weather History Date:

Saturday, February 15, 2014

  Actual Average (KLWS) Record (KLWS)
Temperature  
Mean Temperature 42 °F 38 °F  
Max Temperature 52 °F 46 °F 62 °F (1982)
Min Temperature 32 °F 31 °F -9 °F (1936)
Degree Days  
Heating Degree Days 23 26  
Month to date heating degree days 409  
Since 1 July heating degree days 3528  
Cooling Degree Days 0 0  
Month to date cooling degree days 0  
Year to date cooling degree days 0  
Moisture  
Dew Point 33 °F    
Average Humidity 76    
Maximum Humidity 95    
Minimum Humidity 46    
Precipitation  
Precipitation 0.01 in 0.02 in 0.92 in (2011)
Month to date precipitation 0.41  
Year to date precipitation 1.49  
Snow  
Snow 0.00 in 0.00 in 0.60 in (1978)
Month to date snowfall 1.2  
Since 1 July snowfall 8.9  
Snow Depth -    
Sea Level Pressure  
Sea Level Pressure 29.78 in    
Wind  
Wind Speed 7 mph (South)    
Max Wind Speed 30 mph    
Max Gust Speed 43 mph    
Visibility 10 miles    
Events      
T = Trace of Precipitation, MM = Missing Value Source: NWS Daily Summary

Daily Weather History Graph

Daily Weather History Graph

Search for Another Location

Airport:

Trip Planner

Search our weather history database for the weather conditions in past years. The results will help you decide how hot, cold, wet, or windy it might be!

Date:

Astronomy

Feb. 15, 2014 Rise Set
Actual Time 6:46 AM PST 5:11 PM PST
Civil Twilight 6:16 AM PST 5:41 PM PST
Nautical Twilight 5:41 AM PST 6:16 PM PST
Astronomical Twilight 5:06 AM PST 6:51 PM PST
Moon 6:21 PM PST (2/15) 6:43 AM PST (2/15)
Length of Visible Light 11h 25m
Length of Day
10h 24m
Full, 99% of the Moon is Illuminated
Feb 15
Full
Feb 22
Last Quarter
Mar 1
New
Mar 8
First Quarter
Mar 16
Full

Hourly Weather History & Observations

Time (PST) Temp. Windchill Dew Point Humidity Pressure Visibility Wind Dir Wind Speed Gust Speed Precip Events Conditions
12:15 AM 38.5 °F 36.1 °F 32.0 °F 78% 29.99 in 10.0 mi WNW 3.5 mph - N/A   Scattered Clouds
12:35 AM 37.8 °F 29.4 °F 32.0 °F 80% 29.99 in 10.0 mi SW 13.8 mph 18.4 mph N/A   Scattered Clouds
12:55 AM 37.8 °F 35.3 °F 32.0 °F 80% 29.98 in 10.0 mi WSW 3.5 mph - N/A   Mostly Cloudy
1:15 AM 37.2 °F - 31.8 °F 81% 29.98 in 10.0 mi Calm Calm - N/A   Scattered Clouds
1:35 AM 37.2 °F 34.7 °F 31.6 °F 80% 29.99 in 10.0 mi WSW 3.5 mph - N/A   Clear
1:55 AM 36.9 °F - 31.3 °F 80% 29.99 in 10.0 mi Calm Calm - N/A   Clear
2:15 AM 36.0 °F - 31.8 °F 85% 29.98 in 10.0 mi Calm Calm - N/A   Clear
2:35 AM 35.1 °F - 32.0 °F 89% 29.99 in 10.0 mi Calm Calm - N/A   Clear
2:55 AM 34.5 °F 31.6 °F 31.8 °F 90% 29.98 in 10.0 mi SSW 3.5 mph - N/A   Clear
3:15 AM 33.1 °F - 31.1 °F 92% 30.00 in 10.0 mi Calm Calm - N/A   Clear
3:35 AM 34.0 °F - 30.9 °F 89% 29.98 in 10.0 mi Calm Calm - N/A   Clear
3:55 AM 33.6 °F 28.4 °F 30.4 °F 88% 29.98 in 10.0 mi ENE 5.8 mph - N/A   Clear
4:15 AM 33.4 °F 28.1 °F 30.7 °F 90% 29.97 in 10.0 mi ENE 5.8 mph - N/A   Clear
4:35 AM 34.0 °F 28.8 °F 30.7 °F 88% 29.96 in 10.0 mi East 5.8 mph - N/A   Clear
4:55 AM 33.6 °F 30.6 °F 30.7 °F 89% 29.97 in 10.0 mi ENE 3.5 mph - N/A   Clear
5:15 AM 32.5 °F - 30.7 °F 93% 29.97 in 10.0 mi Calm Calm - N/A   Clear
5:35 AM 32.4 °F 26.9 °F 30.9 °F 94% 29.97 in 10.0 mi ESE 5.8 mph - N/A   Clear
5:55 AM 32.2 °F 27.7 °F 30.9 °F 95% 29.97 in 10.0 mi WSW 4.6 mph - N/A   Mostly Cloudy
6:15 AM 32.0 °F 28.7 °F 30.4 °F 94% 29.96 in 10.0 mi SE 3.5 mph - N/A   Mostly Cloudy
6:35 AM 32.0 °F 26.4 °F 30.4 °F 94% 29.95 in 7.0 mi SE 5.8 mph - N/A   Scattered Clouds
6:55 AM 32.2 °F 26.7 °F 30.2 °F 92% 29.93 in 5.0 mi SE 5.8 mph - N/A   Clear
7:15 AM 32.4 °F - 29.8 °F 90% 29.93 in 10.0 mi Calm Calm - N/A   Clear
7:35 AM 33.3 °F 30.2 °F 30.4 °F 89% 29.93 in 10.0 mi West 3.5 mph - N/A   Clear
7:55 AM 33.1 °F - 30.7 °F 91% 29.92 in 10.0 mi Calm Calm - N/A   Clear
8:15 AM 33.3 °F 28.9 °F 31.1 °F 92% 29.93 in 10.0 mi WSW 4.6 mph - N/A   Clear
8:35 AM 33.8 °F - 31.8 °F 92% 29.91 in 10.0 mi Calm Calm - N/A   Scattered Clouds
8:55 AM 34.2 °F 31.2 °F 32.0 °F 92% 29.91 in 10.0 mi East 3.5 mph - N/A   Mostly Cloudy
9:15 AM 34.2 °F 31.2 °F 32.0 °F 92% 29.89 in 10.0 mi East 3.5 mph - N/A   Overcast
9:35 AM 35.1 °F 32.2 °F 32.4 °F 90% 29.90 in 10.0 mi ESE 3.5 mph - N/A   Overcast
9:55 AM 36.1 °F 33.5 °F 33.4 °F 90% 29.88 in 10.0 mi NE 3.5 mph - N/A   Overcast
10:15 AM 36.7 °F 32.0 °F 33.8 °F 89% 29.87 in 10.0 mi East 5.8 mph - N/A   Overcast
10:35 AM 37.2 °F 33.6 °F 34.2 °F 89% 29.87 in 10.0 mi ENE 4.6 mph - N/A   Overcast
10:55 AM 37.6 °F 33.1 °F 34.3 °F 88% 29.86 in 10.0 mi ENE 5.8 mph - N/A   Overcast
11:15 AM 38.3 °F 33.9 °F 34.5 °F 86% 29.83 in 10.0 mi ENE 5.8 mph - N/A   Overcast
11:35 AM 39.0 °F 36.8 °F 34.9 °F 85% 29.82 in 10.0 mi East 3.5 mph - N/A   Mostly Cloudy
11:55 AM 39.6 °F 37.4 °F 34.5 °F 82% 29.81 in 10.0 mi East 3.5 mph - N/A   Scattered Clouds
12:15 PM 39.9 °F 37.8 °F 34.2 °F 80% 29.79 in 10.0 mi East 3.5 mph - N/A   Mostly Cloudy
12:35 PM 40.3 °F 38.2 °F 34.7 °F 80% 29.77 in 10.0 mi East 3.5 mph - N/A   Overcast
12:55 PM 40.6 °F 38.6 °F 35.2 °F 81% 29.76 in 10.0 mi East 3.5 mph - N/A   Overcast
1:15 PM 41.0 °F 38.0 °F 36.0 °F 82% 29.74 in 10.0 mi ENE 4.6 mph - N/A   Overcast
1:35 PM 41.2 °F 36.0 °F 36.0 °F 82% 29.72 in 10.0 mi NE 8.1 mph - N/A   Overcast
1:55 PM 40.6 °F 36.7 °F 35.6 °F 82% 29.71 in 10.0 mi NE 5.8 mph - N/A   Overcast
2:15 PM 40.6 °F 38.6 °F 35.8 °F 83% 29.70 in 10.0 mi ENE 3.5 mph - N/A   Overcast
2:35 PM 40.5 °F - 36.0 °F 84% 29.69 in 10.0 mi Calm Calm - N/A   Overcast
2:55 PM 40.6 °F 36.7 °F 36.9 °F 86% 29.68 in 10.0 mi ENE 5.8 mph - N/A   Overcast
3:15 PM 40.3 °F - 37.4 °F 89% 29.67 in 10.0 mi Calm Calm - N/A   Overcast
3:35 PM 40.8 °F 32.6 °F 37.8 °F 89% 29.66 in 7.0 mi South 16.1 mph 24.2 mph 0.01 in   Overcast
3:55 PM 45.3 °F 39.3 °F 38.5 °F 77% 29.65 in 10.0 mi South 12.7 mph 19.6 mph 0.01 in   Overcast
4:15 PM 47.3 °F - 37.8 °F 69% 29.64 in 10.0 mi SW 9.2 mph 17.3 mph N/A   Overcast
4:35 PM 46.0 °F 40.2 °F 37.4 °F 72% 29.64 in 10.0 mi WSW 12.7 mph - N/A   Overcast
4:55 PM 45.5 °F 39.6 °F 37.0 °F 72% 29.63 in 10.0 mi SSW 12.7 mph 17.3 mph N/A   Overcast
5:15 PM 47.5 °F - 35.8 °F 64% 29.62 in 10.0 mi SW 21.9 mph 32.2 mph N/A   Overcast
5:35 PM 48.2 °F - 35.4 °F 61% 29.61 in 10.0 mi SSW 19.6 mph 27.6 mph N/A   Overcast
5:55 PM 48.9 °F - 34.9 °F 58% 29.61 in 10.0 mi SW 13.8 mph 32.2 mph N/A   Overcast
6:15 PM 48.6 °F - 34.9 °F 59% 29.59 in 10.0 mi SW 17.3 mph 29.9 mph N/A   Overcast
6:35 PM 49.8 °F - 34.0 °F 55% 29.57 in 10.0 mi SSW 27.6 mph 35.7 mph N/A   Mostly Cloudy
6:55 PM 50.5 °F - 33.4 °F 52% 29.56 in 10.0 mi SSW 27.6 mph 40.3 mph N/A   Mostly Cloudy
7:15 PM 50.7 °F - 33.1 °F 51% 29.54 in 10.0 mi SSW 27.6 mph 36.8 mph N/A   Scattered Clouds
7:35 PM 51.6 °F - 32.0 °F 47% 29.54 in 10.0 mi SSW 29.9 mph 39.1 mph N/A   Clear
7:55 PM 51.8 °F - 32.0 °F 47% 29.54 in 10.0 mi SSW 25.3 mph 35.7 mph N/A   Clear
8:15 PM 51.8 °F - 32.2 °F 47% 29.54 in 10.0 mi SSW 26.5 mph 35.7 mph N/A   Scattered Clouds
8:35 PM 52.2 °F - 31.8 °F 46% 29.54 in 10.0 mi SSW 25.3 mph 33.4 mph N/A   Mostly Cloudy
8:55 PM 52.3 °F - 32.0 °F 46% 29.54 in 10.0 mi SSW 29.9 mph 38.0 mph N/A   Scattered Clouds
9:15 PM 52.0 °F - 32.0 °F 47% 29.54 in 10.0 mi SSW 28.8 mph 42.6 mph N/A   Scattered Clouds
9:35 PM 51.4 °F - 32.5 °F 49% 29.54 in 10.0 mi SSW 24.2 mph 32.2 mph N/A   Overcast
9:55 PM 51.6 °F - 32.7 °F 49% 29.55 in 10.0 mi SW 24.2 mph 32.2 mph N/A   Overcast
10:15 PM 50.7 °F - 33.4 °F 52% 29.56 in 10.0 mi SW 21.9 mph 29.9 mph N/A   Overcast
10:35 PM 50.2 °F - 34.2 °F 54% 29.57 in 10.0 mi SW 23.0 mph 31.1 mph N/A   Overcast
10:55 PM 49.8 °F - 34.2 °F 55% 29.57 in 10.0 mi SW 21.9 mph 29.9 mph N/A   Overcast
11:15 PM 49.5 °F - 33.6 °F 54% 29.57 in 10.0 mi SSW 21.9 mph 28.8 mph N/A   Overcast
11:35 PM 49.6 °F - 34.0 °F 55% 29.60 in 10.0 mi WSW 20.7 mph 31.1 mph N/A   Overcast
11:55 PM 45.9 °F 39.4 °F 36.0 °F 68% 29.63 in 10.0 mi WNW 15.0 mph 29.9 mph N/A   Overcast